FW7308 Weather Reports


time (UTC)temp
F
wind
direction
speed
knots
gust
knots
rain 1hr
in
rain 24hr
in
rain mn
in
humidity
%
barometer
mb
20260905202724 72 279 5.2 6.1 0.00 0.00 0.00 73 1013.8
20260905202223 72 322 1.7 1.7 0.00 0.00 0.00 73 1013.7
20260905201723 71 333 2.6 4.3 0.00 0.00 0.00 72 1013.7
20260905201224 72 325 1.7 1.7 0.00 0.00 0.00 73 1013.7
20260905200823 73 324 1.7 1.7 0.00 0.00 0.00 71 1013.7
20260905200322 73 324 1.7 1.7 0.00 0.00 0.00 71 1013.7
20260905195721 73 291 2.6 2.6 0.00 0.00 0.00 72 1013.5
20260905195324 73 263 7.0 8.7 0.00 0.00 0.00 71 1013.3
20260905194823 73 329 3.5 5.2 0.00 0.00 0.00 70 1013.3
20260905194224 74 335 4.3 6.1 0.00 0.00 0.00 69 1013.7
20260905193720 73 297 4.3 7.0 0.00 0.00 0.00 68 1013.7
20260905193221 73 311 4.3 6.1 0.00 0.00 0.00 71 1013.3
20260905192720 73 332 5.2 7.0 0.00 0.00 0.00 68 1013.7
20260905192219 73 326 2.6 2.6 0.00 0.00 0.00 70 1013.7
20260905191719 73 329 0.9 0.9 0.00 0.00 0.00 70 1013.7
20260905191220 74 296 3.5 5.2 0.00 0.00 0.00 69 1013.7
20260905190719 73 318 0.9 1.7 0.00 0.00 0.00 70 1013.7
20260905190218 72 341 2.6 4.3 0.00 0.00 0.00 73 1013.7
20260905185717 73 326 4.3 7.0 0.00 0.00 0.00 71 1014.0
20260905185217 72 71 1.7 2.6 0.00 0.00 0.00 74 1013.7
20260905184718 72 329 2.6 2.6 0.00 0.00 0.00 72 1013.3
20260905184218 73 337 0.9 1.7 0.00 0.00 0.00 71 1013.7
20260905183716 72 282 3.5 5.2 0.00 0.00 0.00 74 1013.7
20260905183318 72 305 1.7 4.3 0.00 0.00 0.00 73 1013.7
20260905182717 72 295 2.6 4.3 0.00 0.00 0.00 72 1013.7
20260905181745 70 328 1.7 2.6 0.00 0.00 0.00 76 1013.7
20260905181244 70 312 0.9 0.9 0.00 0.00 0.00 77 1013.7
20260905180746 70 313 5.2 6.1 0.00 0.00 0.00 78 1013.7
20260905180245 70 328 3.5 7.0 0.00 0.00 0.00 78 1013.8
20260905175744 70 338 1.7 4.3 0.00 0.00 0.00 78 1013.7
20260905175243 69 319 5.2 6.1 0.00 0.00 0.00 77 1013.7
20260905174245 70 336 2.6 4.3 0.00 0.00 0.00 78 1013.7
20260905173743 70 345 2.6 6.1 0.00 0.00 0.00 78 1014.0
20260905173242 70 301 1.7 1.7 0.00 0.00 0.00 77 1013.7
20260905172743 70 315 1.7 2.6 0.00 0.00 0.00 77 1013.7
20260905172242 70 336 2.6 2.6 0.00 0.00 0.00 76 1013.7
20260905171741 70 320 1.7 2.6 0.00 0.00 0.00 75 1013.7
20260905171240 73 337 1.7 2.6 0.00 0.00 0.00 71 1013.7
20260905170741 70 17 1.7 1.7 0.00 0.00 0.00 75 1013.7
20260905170241 70 292 2.6 5.2 0.00 0.00 0.00 75 1013.7
20260905165740 71 296 2.6 2.6 0.00 0.00 0.00 75 1013.7
20260905164740 72 307 3.5 4.3 0.00 0.00 0.00 74 1013.7
20260905164239 71 339 1.7 2.6 0.00 0.00 0.00 75 1013.7
20260905163739 71 292 1.7 4.3 0.00 0.00 0.00 75 1013.7
20260905163238 71 358 3.5 6.1 0.00 0.00 0.00 73 1013.7
20260905162238 69 352 0.9 1.7 0.00 0.00 0.00 78 1014.0
20260905161739 68 318 2.6 5.2 0.00 0.00 0.00 79 1014.0
20260905161238 69 324 2.6 5.2 0.00 0.00 0.00 78 1014.0
20260905160738 69 330 1.7 2.6 0.00 0.00 0.00 78 1014.0
20260905160238 70 33 4.3 5.2 0.00 0.00 0.00 76 1014.0
20260905155739 70 334 0.0 0.9 0.00 0.00 0.00 77 1014.0
20260905155235 70 324 0.9 1.7 0.00 0.00 0.00 75 1013.8
20260905154736 70 321 2.6 4.3 0.00 0.00 0.00 75 1014.0
20260905154236 72 307 5.2 7.0 0.00 0.00 0.00 72 1014.0
20260905153735 72 327 3.5 5.2 0.00 0.00 0.00 73 1014.0
20260905153234 71 337 1.7 2.6 0.00 0.00 0.00 74 1014.0
20260905152835 70 321 6.1 7.0 0.00 0.00 0.00 75 1014.0
20260905152234 71 14 4.3 6.1 0.00 0.00 0.00 74 1014.0
20260905151733 69 313 1.7 2.6 0.00 0.00 0.00 76 1014.0
20260905151233 68 330 3.5 6.1 0.00 0.00 0.00 77 1014.0
20260905150832 68 327 1.7 2.6 0.00 0.00 0.00 79 1014.0
20260905150233 69 324 1.7 2.6 0.00 0.00 0.00 79 1014.0
20260905145732 68 340 6.1 7.0 0.00 0.00 0.00 77 1014.0
20260905144733 68 319 1.7 1.7 0.00 0.00 0.00 79 1014.0
20260905144232 68 334 3.5 7.0 0.00 0.00 0.00 80 1013.7
20260905143731 68 333 2.6 2.6 0.00 0.00 0.00 80 1014.0
20260905143230 66 340 1.7 4.3 0.00 0.00 0.00 81 1014.0
20260905142731 67 306 3.5 4.3 0.00 0.00 0.00 82 1014.0
20260905142331 67 332 3.5 5.2 0.00 0.00 0.00 82 1014.0
20260905141730 68 306 4.3 5.2 0.00 0.00 0.00 81 1014.0
20260905141229 68 314 1.7 2.6 0.00 0.00 0.00 82 1014.0
20260905140728 68 339 5.2 7.0 0.00 0.00 0.00 83 1014.0
20260905140230 67 333 3.5 5.2 0.00 0.00 0.00 86 1014.0
20260905135732 67 317 0.9 1.7 0.00 0.00 0.00 85 1014.0
20260905135230 67 333 2.6 4.3 0.00 0.00 0.00 86 1014.0
20260905134727 66 331 1.7 4.3 0.00 0.00 0.00 88 1014.0
20260905134228 66 315 2.6 4.3 0.00 0.00 0.00 87 1014.0
20260905133727 65 316 3.5 5.2 0.00 0.00 0.00 89 1014.0
20260905133228 65 331 1.7 4.3 0.00 0.00 0.00 90 1014.0
20260905132726 64 294 0.9 2.6 0.00 0.00 0.00 90 1014.0
20260905132229 64 330 3.5 4.3 0.00 0.00 0.00 91 1014.0
20260905131726 64 354 2.6 5.2 0.00 0.00 0.00 92 1014.0
20260905131225 63 344 5.2 6.1 0.00 0.00 0.00 91 1014.0
20260905130726 63 317 1.7 4.3 0.00 0.00 0.00 92 1014.0
20260905130225 62 306 2.6 4.3 0.00 0.00 0.00 95 1014.0
20260905125725 62 323 0.9 0.9 0.00 0.00 0.00 94 1014.0
20260905125223 62 309 1.7 4.3 0.00 0.00 0.00 95 1014.0
20260905124722 61 324 0.9 1.7 0.00 0.00 0.00 96 1013.8
20260905124223 61 309 1.7 1.7 0.00 0.00 0.00 96 1014.0
20260905123723 61 0.0 0.0 0.00 0.00 0.00 97 1014.0
20260905123222 61 343 1.7 1.7 0.00 0.00 0.00 97 1014.0
20260905122721 61 323 0.0 0.9 0.00 0.00 0.00 96 1013.8
20260905122222 61 0.0 0.0 0.00 0.00 0.00 96 1013.7
20260905121721 61 318 0.0 0.9 0.00 0.00 0.00 96 1013.7
20260905121220 61 318 0.9 0.9 0.00 0.00 0.00 97 1013.7
20260905120720 61 316 0.9 0.9 0.00 0.00 0.00 97 1013.7
20260905120221 60 317 0.9 0.9 0.00 0.00 0.00 97 1013.7
20260905115721 60 319 0.9 0.9 0.00 0.00 0.00 99 1013.3
20260905115220 60 0.0 0.0 0.00 0.00 0.00 99 1013.3
20260905114721 59 0.0 0.0 0.00 0.00 0.00 99 1013.3
20260905113719 58 0.0 0.0 0.00 0.00 0.00 99 1013.3
20260905113218 58 325 0.9 0.9 0.00 0.00 0.00 99 1013.3
20260905112219 57 323 0.9 1.7 0.00 0.00 0.00 99 1013.3
20260905111718 57 324 0.9 1.7 0.00 0.00 0.00 99 1013.3
20260905111217 57 326 0.9 0.9 0.00 0.00 0.00 99 1013.3
20260905110756 57 324 0.9 0.9 0.00 0.00 0.00 99 1013.3
20260905100243 56 324 0.9 1.7 0.00 0.00 0.00 99 1012.8
20260905095743 57 321 0.9 1.7 0.00 0.00 0.00 99 1012.6
20260905095242 57 321 0.9 1.7 0.00 0.00 0.00 99 1012.6
20260905094741 57 323 0.9 1.7 0.00 0.00 0.00 99 1012.6
20260905094242 57 326 1.7 1.7 0.00 0.00 0.00 99 1012.6
20260905093742 57 326 1.7 1.7 0.00 0.00 0.00 99 1012.6
20260905093241 56 326 1.7 2.6 0.00 0.00 0.00 99 1012.6
20260905092740 56 329 1.7 1.7 0.00 0.00 0.00 99 1012.6
20260905092241 56 329 1.7 2.6 0.00 0.00 0.00 99 1012.6
20260905091239 56 329 1.7 1.7 0.00 0.00 0.00 99 1012.6
20260905090239 56 322 1.7 1.7 0.00 0.00 0.00 99 1012.4
20260905085738 56 325 1.7 1.7 0.00 0.00 0.00 99 1012.6
20260905085237 56 318 1.7 1.7 0.00 0.00 0.00 99 1012.6
20260905084739 56 322 0.9 1.7 0.00 0.00 0.00 99 1012.6
20260905084238 56 316 1.7 1.7 0.00 0.00 0.00 99 1012.6
20260905083737 56 322 1.7 1.7 0.00 0.00 0.00 99 1012.6
20260905083238 57 316 1.7 1.7 0.00 0.00 0.00 99 1012.6
20260905082737 57 325 1.7 1.7 0.00 0.00 0.00 99 1012.4
20260905082236 56 318 1.7 1.7 0.00 0.00 0.00 99 1012.6
20260905081736 57 328 1.7 1.7 0.00 0.00 0.00 99 1012.6
20260905081235 57 322 1.7 1.7 0.00 0.00 0.00 99 1012.6
20260905080734 57 324 1.7 1.7 0.00 0.00 0.00 99 1012.6
20260905080235 57 321 1.7 1.7 0.00 0.00 0.00 99 1012.6
20260905075734 57 315 1.7 1.7 0.00 0.00 0.00 99 1012.6
20260905075234 57 319 0.9 0.9 0.00 0.00 0.00 99 1012.6
20260905074735 57 321 0.9 1.7 0.00 0.00 0.00 99 1012.6
20260905074234 57 319 1.7 1.7 0.00 0.00 0.00 99 1012.6
20260905073733 57 319 1.7 1.7 0.00 0.00 0.00 99 1012.6
20260905073232 57 320 1.7 1.7 0.00 0.00 0.00 99 1012.6
20260905072732 57 321 1.7 1.7 0.00 0.00 0.00 99 1012.6
20260905072233 58 319 1.7 1.7 0.00 0.00 0.00 99 1012.8
20260905071732 58 323 1.7 1.7 0.00 0.00 0.00 99 1013.0
20260905071236 58 316 1.7 1.7 0.00 0.00 0.00 99 1012.6
20260905070730 58 323 1.7 1.7 0.00 0.00 0.00 99 1013.0
20260905070231 58 321 1.7 1.7 0.00 0.00 0.00 99 1013.0
20260905065731 58 317 1.7 1.7 0.00 0.00 0.00 99 1013.0
20260905065230 58 325 1.7 1.7 0.00 0.00 0.00 99 1013.0
20260905064729 58 328 1.7 1.7 0.00 0.00 0.00 99 1013.0
20260905064230 59 322 0.9 1.7 0.00 0.00 0.00 99 1013.0
20260905063229 59 319 1.7 1.7 0.00 0.00 0.00 99 1013.0
20260905062729 59 322 0.9 1.7 0.00 0.00 0.00 99 1013.1
20260905062227 59 323 1.7 1.7 0.00 0.00 0.00 99 1013.1
20260905061728 59 320 0.9 1.7 0.00 0.00 0.00 99 1013.0
20260905061227 59 319 0.9 1.7 0.00 0.00 0.00 99 1013.3
20260905060726 60 323 1.7 1.7 0.00 0.00 0.00 99 1013.3
20260905060228 60 329 0.9 1.7 0.00 0.00 0.00 99 1013.3
20260905055727 60 321 1.7 1.7 0.00 0.00 0.00 98 1013.3
20260905055226 60 322 0.9 0.9 0.00 0.00 0.00 99 1013.1
20260905054725 60 325 0.9 0.9 0.00 0.00 0.00 98 1013.3
20260905053725 60 328 0.9 0.9 0.00 0.00 0.00 98 1013.3
20260905053224 60 319 0.9 0.9 0.00 0.00 0.00 98 1013.3
20260905052729 61 327 0.9 0.9 0.00 0.00 0.00 98 1013.3
20260905052225 61 327 1.7 1.7 0.00 0.00 0.00 98 1013.3
20260905051724 61 321 0.9 1.7 0.00 0.00 0.00 98 1013.3
20260905050722 61 325 0.9 1.7 0.00 0.00 0.00 98 1013.3
20260905050222 61 328 1.7 2.6 0.00 0.00 0.00 98 1013.3
20260905045723 61 328 1.7 1.7 0.00 0.00 0.00 97 1013.3
20260905045222 61 325 0.9 1.7 0.00 0.00 0.00 97 1013.3
20260905044721 61 325 0.9 1.7 0.00 0.00 0.00 97 1013.3
20260905044220 61 328 0.9 0.9 0.00 0.00 0.00 99 1013.3
20260905043721 61 321 0.9 0.9 0.00 0.00 0.00 99 1013.7
20260905043221 60 319 0.9 0.9 0.00 0.00 0.00 99 1013.3
20260905042720 60 323 0.9 1.7 0.00 0.00 0.00 99 1013.3
20260905042219 60 324 0.9 1.7 0.00 0.00 0.00 99 1013.3
20260905041720 60 323 0.9 0.9 0.00 0.00 0.00 99 1013.3
20260905041219 60 319 0.9 0.9 0.00 0.00 0.00 99 1013.3
20260905040719 60 325 1.7 1.7 0.00 0.00 0.00 99 1013.3
20260905040218 60 325 1.7 1.7 0.00 0.00 0.00 99 1013.3
20260905035821 60 319 0.9 0.9 0.00 0.00 0.00 99 1013.3
20260905035219 60 319 1.7 1.7 0.00 0.00 0.00 99 1013.7
20260905034719 60 323 1.7 1.7 0.00 0.00 0.00 99 1013.3
20260905034216 60 327 0.9 1.7 0.00 0.00 0.00 99 1013.3
20260905033718 60 319 1.7 1.7 0.00 0.00 0.00 99 1013.5
20260905033217 60 327 0.9 0.9 0.00 0.00 0.00 99 1013.3
20260905032716 60 321 1.7 1.7 0.00 0.00 0.00 99 1013.5
20260905032215 60 328 0.9 0.9 0.00 0.00 0.00 99 1013.5
20260905031746 61 319 0.9 0.9 0.00 0.00 0.00 99 1013.7
20260905031245 61 324 0.9 0.9 0.00 0.00 0.00 99 1013.3
20260905030745 61 325 0.9 0.9 0.00 0.00 0.00 99 1013.5
20260905030244 61 322 1.7 1.7 0.00 0.00 0.00 99 1013.3
20260905025745 61 328 1.7 1.7 0.00 0.00 0.00 99 1013.3
20260905025244 61 321 1.7 1.7 0.00 0.00 0.00 98 1013.5
20260905024743 61 320 1.7 1.7 0.00 0.00 0.00 98 1013.7
20260905024243 61 327 1.7 1.7 0.00 0.00 0.00 98 1013.7
20260905023846 62 319 1.7 1.7 0.00 0.00 0.00 97 1013.7
20260905023343 62 319 0.9 1.7 0.00 0.00 0.00 97 1013.7
20260905022744 62 319 1.7 1.7 0.00 0.00 0.00 96 1013.7
20260905022243 62 323 1.7 1.7 0.00 0.00 0.00 96 1013.8
20260905021740 62 324 1.7 1.7 0.00 0.00 0.00 96 1013.8
20260905021241 62 320 1.7 1.7 0.00 0.00 0.00 96 1013.7
20260905020741 62 321 1.7 1.7 0.00 0.00 0.00 96 1013.7
20260905020240 62 323 1.7 1.7 0.00 0.00 0.00 96 1014.0
20260905015739 62 322 1.7 1.7 0.00 0.00 0.00 96 1014.0
20260905015240 62 325 1.7 1.7 0.00 0.00 0.00 97 1013.7
20260905014739 62 324 1.7 1.7 0.00 0.00 0.00 97 1014.0
20260905014239 62 321 1.7 1.7 0.00 0.00 0.00 97 1014.0
20260905013738 62 323 1.7 1.7 0.00 0.00 0.00 97 1014.0
20260905013240 62 321 1.7 1.7 0.00 0.00 0.00 97 1014.0
20260905012739 62 321 1.7 1.7 0.00 0.00 0.00 97 1014.0
20260905012237 62 326 1.7 1.7 0.00 0.00 0.00 97 1014.0
20260905011737 62 324 1.7 1.7 0.00 0.00 0.00 97 1014.0
20260905011238 62 321 1.7 1.7 0.00 0.00 0.00 97 1013.8
20260905010737 62 320 1.7 1.7 0.00 0.00 0.00 97 1014.0
20260905010236 62 319 1.7 1.7 0.00 0.00 0.00 97 1014.0
20260905005839 62 321 1.7 1.7 0.00 0.00 0.00 97 1014.0
20260905005235 62 319 1.7 1.7 0.00 0.00 0.00 96 1014.0
20260905004736 62 321 1.7 1.7 0.00 0.00 0.00 96 1014.0
20260905004235 62 318 0.9 0.9 0.00 0.00 0.00 96 1014.0
20260905003839 62 321 0.9 0.9 0.00 0.00 0.00 96 1013.7
20260905003338 62 322 0.9 0.9 0.00 0.00 0.00 96 1014.0
20260905002735 63 323 0.9 0.9 0.00 0.00 0.00 96 1014.0
20260905002234 63 321 0.9 1.7 0.00 0.00 0.00 96 1014.0
20260905001733 63 319 0.9 1.7 0.00 0.00 0.00 95 1014.0
20260905001234 63 323 0.9 1.7 0.00 0.00 0.00 95 1014.0
20260905000733 63 321 0.9 1.7 0.00 0.00 0.00 95 1014.0
20260905000233 63 321 0.9 0.9 0.00 0.00 0.00 95 1014.0
20260904235832 64 322 0.9 0.9 0.00 0.00 0.00 94 1013.7
20260904235231 64 323 0.9 0.9 0.00 0.00 0.00 93 1013.7
20260904234734 64 325 0.0 0.9 0.00 0.00 0.00 93 1013.7
20260904234233 65 322 0.9 0.9 0.00 0.00 0.00 92 1013.7
20260904233734 65 322 0.0 0.9 0.00 0.00 0.00 91 1013.7
20260904233232 65 327 0.9 0.9 0.00 0.00 0.00 91 1013.3
20260904232731 66 323 0.0 0.9 0.00 0.00 0.00 90 1013.7
20260904232230 66 328 0.9 0.9 0.00 0.00 0.00 89 1013.7
20260904231729 66 0.0 0.0 0.00 0.00 0.00 90 1013.3
20260904231229 67 0.0 0.0 0.00 0.00 0.00 89 1013.3
20260904220827 72 323 0.9 0.9 0.00 0.00 0.00 76 1013.0
20260904220225 72 325 1.7 1.7 0.00 0.00 0.00 75 1013.3
20260904215725 73 319 0.9 0.9 0.00 0.00 0.00 76 1013.3
20260904215224 73 319 0.9 1.7 0.00 0.00 0.00 74 1013.3
20260904214722 73 326 1.7 2.6 0.00 0.00 0.00 73 1013.3
20260904214224 74 312 1.7 1.7 0.00 0.00 0.00 72 1013.3
20260904213723 74 312 2.6 4.3 0.00 0.00 0.00 71 1013.3
20260904213224 75 301 2.6 2.6 0.00 0.00 0.00 71 1013.3
20260904212724 74 325 0.9 0.9 0.00 0.00 0.00 72 1013.3
20260904212222 74 337 1.7 1.7 0.00 0.00 0.00 73 1013.3
20260904211721 73 346 0.0 0.9 0.00 0.00 0.00 73 1013.3
20260904211222 73 308 2.6 4.3 0.00 0.00 0.00 74 1013.3
20260904210721 74 324 3.5 4.3 0.00 0.00 0.00 71 1013.3
20260904210221 75 339 2.6 4.3 0.00 0.00 0.00 72 1013.3
20260904205720 75 295 5.2 7.0 0.00 0.00 0.00 70 1013.3
20260904205219 74 324 2.6 7.8 0.00 0.00 0.00 70 1013.3
20260904204720 75 298 2.6 2.6 0.00 0.00 0.00 71 1013.3
20260904204321 75 322 3.5 6.1 0.00 0.00 0.00 70 1013.1
20260904203819 75 315 2.6 4.3 0.00 0.00 0.00 71 1013.3
20260904203218 74 323 2.6 2.6 0.00 0.00 0.00 72 1013.3